Date String (YYYY-MM-DD hh:mm:ss) UTC,Instrument flags,absolute air pressure of the measurement (hPa),sample flow rate (lpm),inlet stack bypass flow (lpm),air temperature of the measurement (°C),ambient temperature measured by the external sensor (°C),aerosol sample conditioner tube jacket temperature (°C),OPC LED temperature (°C),internal box temperature (°C),relative humidity of the measurement (%),span deviation,mass concentration of particles derived from Lorenz-Mie calculation of OPC scattering (μg/m³),mass concentration of particles derived from Lorenz-Mie calculation of OPC scattering (μg/m³),mass concentration of particles derived from Lorenz-Mie calculation of OPC scattering (μg/m³)
DateTimeUTC,F1_M11,P_M11,Q1_M11,Q2_M11,T1_M11,T2_M11,T3_M11,T4_M11,T5_M11,U1_M11,ZSPAN_M11,X0_M11,X2_M11,X1_M11
2023-08-15 00:00:00,SystemResetWarning,0839.2,5.00,000.00,029.2,028.0,000.0,037.4,030.9,19.4,0000.0,0013.53,0004.99,0003.93
2023-08-15 00:01:00,SystemResetWarning,0839.1,5.00,000.00,029.2,028.1,000.0,037.5,031.0,19.3,0000.0,0013.36,0004.99,0003.92
2023-08-15 00:02:00,SystemResetWarning,0839.2,4.99,000.00,029.2,026.7,000.0,037.4,030.7,18.7,0000.0,0012.19,0004.99,0003.92
2023-08-15 00:03:00,SystemResetWarning,0839.2,5.00,000.00,029.1,024.9,000.0,037.3,030.3,18.9,0000.0,0011.56,0004.94,0003.91
2023-08-15 00:04:00,SystemResetWarning,0839.1,5.01,000.00,029.0,024.8,000.0,037.2,030.2,19.6,0000.0,0011.89,0004.91,0003.89
2023-08-15 00:05:00,SystemResetWarning,0839.1,5.00,000.00,028.9,025.2,000.0,037.2,030.2,19.2,0000.0,0012.65,0004.87,0003.87
2023-08-15 00:06:00,SystemResetWarning,0839.2,5.00,000.00,028.9,025.6,000.0,037.3,030.3,19.3,0000.0,0013.94,0004.84,0003.86
2023-08-15 00:07:00,SystemResetWarning,0839.1,5.01,000.00,028.9,026.1,000.0,037.3,030.4,19.1,0000.0,0014.14,0004.83,0003.87
2023-08-15 00:08:00,SystemResetWarning,0839.2,5.00,000.00,028.9,026.5,000.0,037.3,030.5,19.1,0000.0,0014.43,0004.83,0003.86
2023-08-15 00:09:00,SystemResetWarning,0839.2,5.00,000.00,029.0,026.9,000.0,037.3,030.6,19.5,0000.0,0014.92,0004.83,0003.86
2023-08-15 00:10:00,SystemResetWarning,0839.2,5.00,000.00,029.0,027.2,000.0,037.3,030.7,19.4,0000.0,0016.95,0004.84,0003.85
2023-08-15 00:11:00,SystemResetWarning,0839.2,4.99,000.00,029.0,027.5,000.0,037.4,030.8,19.4,0000.0,0018.44,0004.85,0003.85
2023-08-15 00:12:00,SystemResetWarning,0839.2,5.00,000.00,029.1,027.7,000.0,037.4,030.9,19.5,0000.0,0018.77,0004.82,0003.85
2023-08-15 00:13:00,SystemResetWarning,0839.1,5.00,000.00,029.1,028.0,000.0,037.4,030.9,19.2,0000.0,0020.29,0004.81,0003.84
2023-08-15 00:14:00,SystemResetWarning,0839.2,5.00,000.00,029.2,027.9,000.0,037.4,030.9,19.4,0000.0,0021.99,0004.78,0003.83
2023-08-15 00:15:00,SystemResetWarning,0839.2,4.99,000.00,029.2,026.3,000.0,037.3,030.6,19.5,0000.0,0023.44,0004.87,0003.85
2023-08-15 00:16:00,SystemResetWarning,0839.1,5.01,000.00,029.1,025.7,000.0,037.2,030.4,19.6,0000.0,0023.09,0004.90,0003.87
2023-08-15 00:17:00,SystemResetWarning,0839.2,5.01,000.00,029.0,025.9,000.0,037.3,030.4,19.8,-000.5,0022.58,0004.94,0003.88
2023-08-15 00:18:00,SystemResetWarning,0839.2,5.00,000.00,029.0,026.2,000.0,037.3,030.4,19.5,-000.1,0022.16,0004.93,0003.89
2023-08-15 00:19:00,SystemResetWarning,0839.1,5.00,000.00,029.0,026.6,000.0,037.3,030.5,19.6,-000.7,0022.75,0004.90,0003.89
2023-08-15 00:20:00,SystemResetWarning,0839.2,5.00,000.00,029.1,026.9,000.0,037.4,030.7,19.5,-001.0,0022.74,0004.91,0003.90
2023-08-15 00:21:00,SystemResetWarning,0839.2,5.00,000.00,029.1,027.3,000.0,037.4,030.8,19.5,-000.7,0021.28,0004.89,0003.90
2023-08-15 00:22:00,SystemResetWarning,0839.2,5.00,000.00,029.1,027.6,000.0,037.4,030.9,19.6,-000.9,0018.96,0004.86,0003.90
2023-08-15 00:23:00,SystemResetWarning,0839.2,5.00,000.00,029.2,027.8,000.0,037.5,030.9,19.6,-000.6,0018.93,0004.94,0003.92
2023-08-15 00:24:00,SystemResetWarning,0839.2,5.01,000.00,029.2,028.0,000.0,037.5,031.0,19.5,0001.4,0018.14,0004.96,0003.93
2023-08-15 00:25:00,SystemResetWarning,0839.2,4.99,000.00,029.3,027.5,000.0,037.5,031.0,19.7,0002.4,0017.61,0004.97,0003.94
2023-08-15 00:26:00,SystemResetWarning,0839.1,4.99,000.00,029.2,025.6,000.0,037.4,030.5,20.0,0003.2,0016.73,0004.99,0003.94
2023-08-15 00:27:00,SystemResetWarning,0839.1,5.00,000.00,029.1,024.7,000.0,037.3,030.2,20.0,0002.9,0015.99,0004.98,0003.93
2023-08-15 00:28:00,SystemResetWarning,0839.1,5.01,000.00,029.0,025.0,000.0,037.2,030.2,20.2,0002.0,0015.84,0005.00,0003.93
2023-08-15 00:29:00,SystemResetWarning,0839.1,5.02,000.00,028.9,025.4,000.0,037.3,030.2,20.3,0000.0,0016.43,0004.99,0003.93
2023-08-15 00:30:00,SystemResetWarning,0839.1,4.99,000.00,028.9,025.9,000.0,037.3,030.4,20.4,0000.0,0015.83,0004.99,0003.93
2023-08-15 00:31:00,SystemResetWarning,0839.1,5.00,000.00,029.0,026.4,000.0,037.3,030.5,20.2,0000.0,0015.65,0005.01,0003.94
2023-08-15 00:32:00,SystemResetWarning,0839.1,5.00,000.00,029.0,026.8,000.0,037.4,030.6,19.7,0000.0,0015.68,0005.02,0003.95
2023-08-15 00:33:00,SystemResetWarning,0839.2,5.00,000.00,029.0,027.1,000.0,037.4,030.7,19.7,0000.0,0015.95,0005.11,0003.96
2023-08-15 00:34:00,SystemResetWarning,0839.1,4.99,000.00,029.1,027.4,000.0,037.4,030.8,19.7,0000.0,0016.19,0005.12,0003.95
2023-08-15 00:35:00,SystemResetWarning,0839.1,5.00,000.00,029.1,027.7,000.0,037.4,030.8,19.4,0000.0,0016.77,0005.13,0003.94
2023-08-15 00:36:00,SystemResetWarning,0839.1,5.01,000.00,029.2,027.9,000.0,037.5,030.9,19.4,0000.0,0015.97,0005.22,0003.96
2023-08-15 00:37:00,SystemResetWarning,0839.1,5.00,000.00,029.2,028.1,000.0,037.5,031.0,19.6,0000.0,0016.49,0005.20,0003.96
2023-08-15 00:38:00,SystemResetWarning,0839.1,4.97,000.00,029.2,027.2,000.0,037.4,030.8,19.9,0000.0,0016.58,0005.21,0003.96
2023-08-15 00:39:00,SystemResetWarning,0839.1,5.01,000.00,029.2,025.2,000.0,037.3,030.4,20.3,0000.0,0016.49,0005.21,0003.97
2023-08-15 00:40:00,SystemResetWarning,0839.1,5.01,000.00,029.1,024.7,000.0,037.2,030.2,20.6,0000.0,0017.25,0005.25,0003.99
2023-08-15 00:41:00,SystemResetWarning,0839.0,5.00,000.00,029.0,025.0,000.0,037.2,030.2,20.3,0000.0,0018.18,0005.27,0004.01
2023-08-15 00:42:00,SystemResetWarning,0839.0,5.00,000.00,028.9,025.4,000.0,037.3,030.2,20.8,0000.0,0018.54,0005.35,0004.02
2023-08-15 00:43:00,SystemResetWarning,0839.0,5.00,000.00,028.9,025.9,000.0,037.3,030.4,20.8,0000.0,0018.47,0005.39,0004.03
2023-08-15 00:44:00,SystemResetWarning,0839.0,5.00,000.00,028.9,026.4,000.0,037.3,030.5,20.9,0000.0,0018.57,0005.37,0004.02
2023-08-15 00:45:00,SystemResetWarning,0839.0,4.99,000.00,029.0,026.8,000.0,037.3,030.6,21.2,0000.0,0018.90,0005.33,0004.03
2023-08-15 00:46:00,SystemResetWarning,0839.0,5.00,000.00,029.0,027.1,000.0,037.4,030.6,20.8,0000.0,0019.25,0005.35,0004.04
2023-08-15 00:47:00,SystemResetWarning,0839.0,5.00,000.00,029.0,027.4,000.0,037.4,030.7,20.7,0000.0,0021.10,0005.37,0004.06
2023-08-15 00:48:00,SystemResetWarning,0839.0,5.00,000.00,029.1,027.7,000.0,037.4,030.8,20.8,0000.0,0021.38,0005.41,0004.07
2023-08-15 00:49:00,SystemResetWarning,0839.1,5.00,000.00,029.1,027.9,000.0,037.4,030.9,20.4,0000.0,0021.47,0005.43,0004.09
2023-08-15 00:50:00,SystemResetWarning,0839.1,5.00,000.00,029.2,028.1,000.0,037.5,031.0,20.1,0000.0,0022.04,0005.48,0004.09
2023-08-15 00:51:00,SystemResetWarning,0839.0,5.00,000.00,029.2,027.7,000.0,037.4,030.9,20.4,0000.0,0022.81,0005.51,0004.09
2023-08-15 00:52:00,SystemResetWarning,0838.9,4.98,000.00,029.2,026.0,000.0,037.3,030.6,20.7,0000.0,0023.01,0005.55,0004.09
2023-08-15 00:53:00,SystemResetWarning,0838.8,5.02,000.00,029.1,025.7,000.0,037.3,030.5,20.7,0000.0,0023.03,0005.58,0004.09
2023-08-15 00:54:00,SystemResetWarning,0838.8,4.99,000.00,029.1,025.9,000.0,037.3,030.5,20.8,0000.0,0024.72,0005.57,0004.09
2023-08-15 00:55:00,SystemResetWarning,0838.9,5.00,000.00,029.0,026.3,000.0,037.3,030.5,20.7,0000.0,0025.80,0005.54,0004.09
2023-08-15 00:56:00,SystemResetWarning,0838.9,5.01,000.00,029.1,026.6,000.0,037.4,030.6,20.7,0000.0,0025.88,0005.59,0004.11
2023-08-15 00:57:00,SystemResetWarning,0838.9,4.99,000.00,029.1,027.0,000.0,037.4,030.7,20.9,0000.0,0025.27,0005.61,0004.11
2023-08-15 00:58:00,SystemResetWarning,0839.0,4.99,000.00,029.1,027.4,000.0,037.4,030.8,21.1,0000.0,0024.06,0005.60,0004.09
2023-08-15 00:59:00,SystemResetWarning,0839.0,5.00,000.00,029.2,027.6,000.0,037.5,030.9,21.0,0000.0,0022.91,0005.60,0004.09
